• In Spain
  • List of Countries
  • For 7 days
  • Water Temperature
  • Satellite Maps
  • Weather Map
  • Weather Widgets
  • user-avatar
    Login

    Hourly Weather Lykoshino

    Today, 24 September, Monday

    Time Temperature Precipitation Wind Pressure Humidity
    00:00 +7°C° 0 mm 3 mps 738 mmHg 93%
    01:00 +7°C° 0 mm 3 mps 738 mmHg 94%
    02:00 +6°C° 0 mm 2 mps 738 mmHg 97%
    03:00 +6°C° 0 mm 2 mps 738 mmHg 96%
    04:00 +6°C° 0 mm 2 mps 738 mmHg 96%
    05:00 +5°C° 0 mm 3 mps 738 mmHg 95%
    06:00 +7°C° 0 mm 3 mps 738 mmHg 93%
    07:00 +7°C° 0 mm 2 mps 738 mmHg 92%
    08:00 +7°C° 0 mm 2 mps 738 mmHg 88%
    09:00 +8°C° 0 mm 2 mps 738 mmHg 84%
    10:00 +9°C° 0 mm 2 mps 737 mmHg 80%
    11:00 +10°C° 0 mm 2 mps 737 mmHg 75%
    12:00 +10°C° 0.3 mm 2 mps 737 mmHg 77%
    13:00 +10°C° 0.3 mm 2 mps 737 mmHg 80%
    14:00 +10°C° 0.3 mm 2 mps 736 mmHg 82%
    15:00 +9°C° 0.9 mm 2 mps 736 mmHg 86%
    16:00 +9°C° 0.9 mm 2 mps 735 mmHg 90%
    17:00 +8°C° 0.9 mm 2 mps 735 mmHg 94%
    18:00 +8°C° 1.1 mm 2 mps 734 mmHg 95%
    19:00 +8°C° 1.1 mm 2 mps 734 mmHg 95%
    20:00 +7°C° 1.1 mm 2 mps 733 mmHg 96%
    21:00 +7°C° 1.1 mm 3 mps 733 mmHg 95%
    22:00 +6°C° 1.1 mm 4 mps 733 mmHg 95%
    23:00 +6°C° 1.1 mm 4 mps 732 mmHg 95%

    Tomorrow, 25 September, Tuesday

    Time Temperature Precipitation Wind Pressure Humidity
    00:00 +6°C° 1.1 mm 4 mps 732 mmHg 94%
    01:00 +6°C° 1.1 mm 5 mps 732 mmHg 93%
    02:00 +6°C° 1.1 mm 5 mps 732 mmHg 93%
    03:00 +6°C° 0.8 mm 5 mps 732 mmHg 92%
    04:00 +5°C° 0.8 mm 6 mps 732 mmHg 91%
    05:00 +5°C° 0.8 mm 6 mps 733 mmHg 90%
    06:00 +4°C° 0.3 mm 6 mps 733 mmHg 89%
    07:00 +4°C° 0.3 mm 6 mps 734 mmHg 87%
    08:00 +4°C° 0.3 mm 6 mps 735 mmHg 86%
    09:00 +5°C° 0.1 mm 6 mps 735 mmHg 81%
    10:00 +6°C° 0.1 mm 7 mps 736 mmHg 76%
    11:00 +6°C° 0.1 mm 7 mps 737 mmHg 71%
    12:00 +8°C° 0.1 mm 7 mps 738 mmHg 69%
    13:00 +8°C° 0.1 mm 7 mps 738 mmHg 66%
    14:00 +8°C° 0.1 mm 7 mps 739 mmHg 63%
    15:00 +8°C° 0.1 mm 6 mps 740 mmHg 67%
    16:00 +7°C° 0.1 mm 6 mps 741 mmHg 70%
    17:00 +5°C° 0.1 mm 6 mps 742 mmHg 73%
    18:00 +6°C° 0 mm 5 mps 743 mmHg 72%
    19:00 +5°C° 0 mm 5 mps 744 mmHg 72%
    20:00 +5°C° 0 mm 5 mps 744 mmHg 72%
    21:00 +4°C° 0 mm 4 mps 745 mmHg 72%
    22:00 +3°C° 0 mm 4 mps 746 mmHg 72%
    23:00 +1°C° 0 mm 4 mps 746 mmHg 73%

    Day after tomorrow, 26 September, Wednesday

    Time Temperature Precipitation Wind Pressure Humidity
    00:00 +1°C° 0 mm 4 mps 747 mmHg 73%
    01:00 +1°C° 0 mm 3 mps 747 mmHg 74%
    02:00 +1°C° 0 mm 3 mps 748 mmHg 75%
    03:00 +1°C° 0 mm 3 mps 748 mmHg 77%
    04:00 0°C° 0 mm 3 mps 748 mmHg 79%
    05:00 0°C° 0 mm 3 mps 748 mmHg 80%
    06:00 +1°C° 0 mm 3 mps 748 mmHg 79%
    07:00 +3°C° 0 mm 3 mps 749 mmHg 77%
    08:00 +4°C° 0 mm 4 mps 749 mmHg 76%
    09:00 +6°C° 0 mm 4 mps 748 mmHg 71%
    10:00 +7°C° 0 mm 4 mps 748 mmHg 67%
    11:00 +9°C° 0 mm 5 mps 748 mmHg 63%
    12:00 +9°C° 0 mm 5 mps 747 mmHg 60%
    13:00 +10°C° 0 mm 5 mps 746 mmHg 57%
    14:00 +10°C° 0 mm 6 mps 745 mmHg 54%
    15:00 +9°C° 0.2 mm 6 mps 744 mmHg 61%
    16:00 +8°C° 0.2 mm 6 mps 743 mmHg 68%
    17:00 +7°C° 0.2 mm 6 mps 742 mmHg 76%
    18:00 +7°C° 1.2 mm 6 mps 740 mmHg 80%
    19:00 +6°C° 1.2 mm 7 mps 739 mmHg 84%
    20:00 +5°C° 1.2 mm 7 mps 738 mmHg 89%
    21:00 +5°C° 1.5 mm 7 mps 737 mmHg 90%
    22:00 +6°C° 1.5 mm 7 mps 736 mmHg 90%
    23:00 +7°C° 1.5 mm 6 mps 735 mmHg 91%

    27 September, Thursday

    Time Temperature Precipitation Wind Pressure Humidity
    00:00 +7°C° 0.7 mm 6 mps 735 mmHg 90%
    01:00 +7°C° 0.7 mm 5 mps 735 mmHg 89%
    02:00 +7°C° 0.7 mm 4 mps 735 mmHg 88%
    03:00 +6°C° 0 mm 4 mps 735 mmHg 88%
    04:00 +5°C° 0 mm 4 mps 735 mmHg 88%
    05:00 +5°C° 0 mm 4 mps 735 mmHg 89%
    06:00 +5°C° 0 mm 4 mps 735 mmHg 86%
    07:00 +5°C° 0 mm 5 mps 736 mmHg 83%
    08:00 +6°C° 0 mm 5 mps 736 mmHg 81%
    09:00 +7°C° 0.1 mm 6 mps 736 mmHg 75%
    10:00 +8°C° 0.1 mm 6 mps 736 mmHg 70%
    11:00 +8°C° 0.1 mm 7 mps 736 mmHg 65%
    12:00 +9°C° 0.1 mm 7 mps 736 mmHg 63%
    13:00 +9°C° 0.1 mm 7 mps 736 mmHg 61%
    14:00 +9°C° 0.1 mm 7 mps 736 mmHg 59%
    15:00 +8°C° 0.1 mm 6 mps 736 mmHg 63%
    16:00 +8°C° 0.1 mm 5 mps 736 mmHg 67%
    17:00 +7°C° 0.1 mm 4 mps 736 mmHg 71%
    18:00 +8°C° 0 mm 3 mps 737 mmHg 73%
    19:00 +7°C° 0 mm 3 mps 737 mmHg 76%
    20:00 +7°C° 0 mm 3 mps 737 mmHg 78%
    21:00 +5°C° 0.1 mm 3 mps 737 mmHg 80%
    22:00 +5°C° 0.1 mm 3 mps 737 mmHg 82%
    23:00 +5°C° 0.1 mm 3 mps 737 mmHg 84%

    28 September, Friday

    Time Temperature Precipitation Wind Pressure Humidity
    00:00 +5°C° 0.3 mm 3 mps 737 mmHg 87%
    01:00 +5°C° 0.3 mm 3 mps 737 mmHg 89%
    02:00 +5°C° 0.3 mm 3 mps 736 mmHg 92%
    03:00 +5°C° 0.6 mm 3 mps 736 mmHg 93%
    04:00 +6°C° 0.6 mm 2 mps 736 mmHg 94%
    05:00 +6°C° 0.6 mm 2 mps 736 mmHg 95%
    06:00 +6°C° 0 mm 2 mps 736 mmHg 94%
    07:00 +5°C° 0 mm 3 mps 736 mmHg 92%
    08:00 +5°C° 0 mm 3 mps 736 mmHg 90%
    09:00 +7°C° 0 mm 3 mps 737 mmHg 84%
    10:00 +6°C° 0 mm 4 mps 737 mmHg 78%
    11:00 +7°C° 0 mm 4 mps 738 mmHg 72%
    12:00 +7°C° 0 mm 4 mps 738 mmHg 66%
    13:00 +8°C° 0 mm 4 mps 739 mmHg 59%
    14:00 +8°C° 0 mm 4 mps 739 mmHg 53%
    15:00 +7°C° 0 mm 4 mps 739 mmHg 56%
    16:00 +7°C° 0 mm 3 mps 740 mmHg 60%
    17:00 +6°C° 0 mm 2 mps 740 mmHg 63%
    18:00 +5°C° 0 mm 2 mps 741 mmHg 66%
    19:00 +4°C° 0 mm 2 mps 741 mmHg 69%
    20:00 +3°C° 0 mm 2 mps 742 mmHg 72%
    21:00 +3°C° 0 mm 2 mps 742 mmHg 71%
    22:00 +3°C° 0 mm 2 mps 743 mmHg 70%
    23:00 +4°C° 0 mm 1 mps 743 mmHg 69%

    29 September, Saturday

    Time Temperature Precipitation Wind Pressure Humidity
    00:00 +3°C° 0 mm 1 mps 743 mmHg 70%
    01:00 +3°C° 0 mm 1 mps 744 mmHg 71%
    02:00 +3°C° 0 mm 1 mps 744 mmHg 71%
    03:00 +2°C° 0 mm 1 mps 744 mmHg 73%
    04:00 +2°C° 0 mm 1 mps 745 mmHg 74%
    05:00 +1°C° 0 mm 1 mps 745 mmHg 75%
    06:00 +2°C° 0 mm 1 mps 745 mmHg 71%
    07:00 +3°C° 0 mm 1 mps 746 mmHg 67%
    08:00 +4°C° 0 mm 1 mps 746 mmHg 63%
    09:00 +6°C° 0 mm 1 mps 747 mmHg 57%
    10:00 +7°C° 0 mm 1 mps 747 mmHg 52%
    11:00 +7°C° 0 mm 2 mps 747 mmHg 47%
    12:00 +7°C° 0 mm 2 mps 748 mmHg 48%
    13:00 +8°C° 0 mm 2 mps 748 mmHg 49%
    14:00 +8°C° 0 mm 2 mps 748 mmHg 50%
    15:00 +7°C° 0 mm 2 mps 748 mmHg 57%
    16:00 +6°C° 0 mm 2 mps 748 mmHg 64%
    17:00 +6°C° 0 mm 1 mps 748 mmHg 72%
    18:00 +5°C° 0 mm 1 mps 748 mmHg 75%
    19:00 +3°C° 0 mm 2 mps 749 mmHg 79%
    20:00 +2°C° 0 mm 2 mps 749 mmHg 83%
    21:00 +2°C° 0 mm 2 mps 749 mmHg 85%
    22:00 +2°C° 0 mm 2 mps 749 mmHg 86%
    23:00 +2°C° 0 mm 2 mps 749 mmHg 87%
    Show more